Temp
82 96 101 97 82 84 80 85 97 90 91 98 98 96 95 98 94 75 103 104 106 100 93 89 80 81 81 81 81 80 80 79 80 79 79 79 79 80 79 80 80 81 81 82 82 81 81 81 81
96 99 98 91 78 75 80 91 90 92 97 98 99 99 97 94 102 99 101 103 105 98 93 92 80 80 80 80 80 80 80 79 79 79 79 79 79 79 80 80 80 81 81 82 82 82 82 81 81
89 99 89 84 79 75 80 91 94 95 96 96 94 100 98 95 100 101 103 103 104 97 94 90 80 80 80 80 79 79 79 79 79 79 79 79 79 79 79 80 80 81 82 82 82 81 81 81 81
93 93 90 78 76 84 87 92 93 91 97 98 97 92 101 102 100 103 102 104 100 98 99 82 79 79 80 80 79 79 79 79 79 79 79 79 79 79 79 79 80 81 81 82 81 81 81 80 80
94 91 78 76 78 86 93 96 93 90 94 95 97 92 95 99 102 103 102 103 101 101 99 89 79 79 79 80 79 79 79 79 79 79 79 79 79 78 79 79 80 81 81 81 81 80 80 80 80
84 87 75 73 79 86 90 93 93 91 93 95 94 95 96 101 100 102 104 103 105 102 99 92 81 79 79 79 79 79 78 79 79 79 79 79 78 78 79 79 80 80 81 81 80 80 79 79 79
81 81 75 79 81 84 90 98 89 88 91 93 100 90 95 100 103 104 104 106 105 105 101 94 91 85 79 78 78 78 78 78 78 78 78 78 78 78 78 78 79 79 80 80 80 79 79 79 79
86 84 78 80 79 82 94 96 94 92 92 101 99 88 90 91 102 105 105 106 106 105 103 98 94 93 90 88 78 78 78 78 77 78 78 78 78 78 78 78 78 79 79 79 79 79 79 78 78
91 76 73 78 80 84 95 90 94 98 95 95 98 97 100 101 100 102 102 103 104 103 102 100 97 94 94 95 86 79 78 78 78 79 78 78 89 86 85 84 79 79 79 79 79 79 78 78 78
80 74 76 86 89 87 90 90 91 90 90 90 94 98 100 100 99 99 98 99 100 100 102 103 96 96 96 98 89 89 89 89 87 88 85 88 90 91 93 87 79 79 79 79 78 78 78 78 91
81 74 84 86 88 89 86 87 91 87 85 91 91 96 98 98 98 99 100 101 101 101 102 103 96 94 96 99 92 93 92 91 90 90 88 89 92 92 92 92 89 87 80 89 84 85 86 90 93
76 82 83 86 85 84 81 86 84 87 87 95 96 98 95 95 97 98 97 101 101 100 100 100 96 93 93 99 96 95 95 93 93 92 90 90 91 90 91 93 94 90 94 91 93 95 93 93 93
78 80 84 85 85 85 85 82 83 85 91 94 96 96 94 94 96 94 89 78 92 96 97 97 95 92 91 93 95 96 96 95 95 94 92 92 92 90 92 92 94 95 96 95 93 93 93 92 92
82 81 81 85 83 84 81 82 83 85 91 89 90 91 93 93 95 96 95 92 83 82 93 96 95 91 90 90 93 93 94 95 95 96 94 91 92 91 93 91 92 93 94 95 95 94 93 93 93
82 74 78 80 82 80 83 76 77 86 89 87 87 88 90 92 95 94 96 94 94 93 75 83 92 91 89 88 90 92 94 95 94 95 93 92 89 89 89 91 92 92 93 91 90 89 90 90 91
73 74 68 80 81 82 80 69 82 88 86 84 86 87 89 91 94 97 96 94 93 93 93 90 92 89 85 88 90 91 90 87 93 95 94 91 89 90 87 89 90 88 87 81 80 81 87 88 92
71 65 69 75 83 81 77 71 82 88 86 84 85 85 87 90 92 94 96 90 90 89 91 90 86 92 85 81 82 75 81 75 79 88 85 83 88 87 89 89 85 86 81 83 82 86 84 85 86
65 64 70 71 79 78 76 74 80 85 85 83 84 85 86 89 90 92 94 94 93 91 88 89 89 90 89 90 87 81 80 82 91 89 92 91 86 86 85 84 82 84 77 84 88 85 85 86 87
75 73 70 75 80 75 74 74 79 84 85 83 83 84 85 88 93 93 94 87 93 92 88 88 85 86 87 88 88 87 82 83 81 88 87 84 80 82 82 84 83 85 85 87 85 85 84 85 87
72 69 69 74 78 75 73 73 79 83 83 84 83 84 85 88 91 91 90 90 91 89 89 88 85 84 84 90 87 90 82 91 87 86 85 85 85 83 84 85 87 86 85 84 83 81 80 82 84
69 67 68 68 75 76 73 69 74 82 84 85 85 86 88 88 88 90 90 88 88 88 87 87 87 87 85 84 86 85 85 82 80 83 84 85 87 87 86 86 85 84 84 84 82 82 79 76 78
63 73 71 69 67 61 75 60 73 77 78 81 83 85 87 89 91 92 92 88 89 85 85 85 83 84 84 85 84 80 83 82 84 83 87 86 84 84 86 84 83 82 82 78 79 80 76 78 77
67 75 71 70 66 66 67 64 71 78 74 78 82 85 87 89 91 91 91 89 89 89 89 83 82 78 78 79 81 81 83 85 87 87 81 82 82 82 82 82 82 78 79 81 81 80 78 80 80
75 71 69 69 66 56 65 65 67 71 75 79 83 85 87 89 91 92 91 90 87 85 85 82 78 76 78 79 79 79 77 79 81 79 82 83 86 81 77 82 80 79 78 78 79 78 78 77 78
71 64 54 52 53 53 68 65 67 73 78 81 80 85 86 86 86 86 83 84 84 81 80 78 76 74 76 76 76 75 74 74 75 74 81 77 79 82 82 79 77 78 77 76 76 75 76 76 76
67 65 57 46 49 57 68 58 67 79 82 82 84 84 85 84 86 84 83 82 84 82 80 80 78 76 76 76 74 75 75 80 78 77 76 77 78 79 78 75 75 74 73 74 73 74 74 73 75
67 62 71 60 61 55 55 66 74 76 78 80 81 81 81 83 83 84 83 82 82 79 78 79 78 76 76 76 75 75 75 74 74 73 72 75 75 76 75 73 71 71 71 71 70 71 70 71 70
71 74 58 62 46 43 51 55 58 69 74 78 78 79 80 82 82 82 82 81 79 79 78 77 77 75 75 76 76 77 74 74 73 73 71 71 72 71 71 70 70 69 69 69 69 69 69 69 69
67 65 65 64 60 48 47 55 70 67 75 75 78 79 79 80 80 79 79 78 78 79 77 76 77 77 76 77 76 74 74 74 73 72 71 71 70 70 69 69 69 69 68 68 66 65 66 66 66
72 67 66 56 48 57 56 51 73 70 75 79 80 80 80 80 80 80 79 79 79 79 79 77 75 77 78 77 75 73 73 72 71 71 70 70 69 69 69 69 68 69 67 66 66 65 67 66 65
MSLP
1011.07 1009.87 1008.40 1007.16 1005.76 1002.81 1000.28 998.60 997.25 997.33 998.22 998.54 999.37 999.18 998.61 998.39 997.87 1000.72 1001.75 1002.38 1002.70 1004.34 1005.98 1007.17 1007.86 1008.30 1008.82 1009.36 1009.82 1010.31 1010.68 1011.12 1011.51 1011.81 1012.23 1012.59 1012.86 1013.13 1013.43 1013.61 1013.65 1013.84 1013.99 1014.18 1014.41 1014.56 1014.67 1014.79 1014.97
1009.64 1008.62 1007.71 1006.06 1004.08 1001.29 999.15 998.38 997.22 998.31 998.17 999.46 999.47 998.92 998.58 998.17 999.07 1000.51 1001.72 1002.77 1003.14 1004.93 1006.18 1006.94 1008.11 1008.35 1008.93 1009.37 1009.96 1010.43 1010.90 1011.28 1011.62 1012.00 1012.44 1012.82 1013.11 1013.33 1013.55 1013.74 1013.86 1014.00 1014.20 1014.40 1014.64 1014.81 1014.95 1015.02 1015.19
1010.14 1008.16 1006.84 1004.81 1002.99 1000.67 998.70 997.53 997.17 998.11 999.40 999.70 999.49 999.28 999.13 999.04 1000.06 1000.74 1002.21 1002.99 1003.62 1005.13 1006.11 1007.09 1008.23 1008.56 1009.04 1009.53 1010.03 1010.54 1010.95 1011.44 1011.85 1012.22 1012.56 1013.04 1013.37 1013.50 1013.68 1013.81 1014.06 1014.26 1014.38 1014.59 1014.83 1014.97 1015.11 1015.22 1015.40
1008.64 1007.78 1006.68 1003.61 1001.53 1000.37 999.30 997.82 998.77 999.15 999.51 999.58 999.48 999.42 999.18 1000.53 1000.68 1001.44 1002.87 1003.16 1004.03 1005.23 1005.84 1007.81 1008.37 1008.68 1009.11 1009.55 1010.00 1010.45 1010.94 1011.38 1011.86 1012.31 1012.77 1013.18 1013.48 1013.76 1013.89 1014.02 1014.12 1014.34 1014.52 1014.69 1014.93 1015.13 1015.23 1015.33 1015.48
1007.76 1006.14 1004.49 1002.53 1001.38 1000.24 998.98 998.62 999.15 999.56 999.58 999.55 999.36 999.34 999.31 1000.85 1001.61 1002.06 1002.90 1003.38 1004.06 1004.84 1005.63 1007.66 1008.58 1009.01 1009.44 1009.86 1010.24 1010.57 1011.02 1011.44 1011.77 1012.24 1012.65 1013.19 1013.59 1013.82 1014.04 1014.06 1014.28 1014.47 1014.66 1014.86 1015.05 1015.22 1015.36 1015.47 1015.56
1006.58 1005.48 1003.16 1001.33 1000.36 999.93 999.65 999.47 1000.01 1000.18 1000.06 999.79 999.71 999.32 999.51 1000.88 1001.52 1002.23 1002.65 1003.22 1003.79 1004.52 1005.64 1007.37 1008.76 1009.28 1009.75 1010.17 1010.48 1010.78 1011.24 1011.74 1012.18 1012.44 1012.77 1013.12 1013.59 1013.89 1014.11 1014.21 1014.43 1014.60 1014.73 1014.89 1015.06 1015.23 1015.39 1015.54 1015.63
1005.43 1004.07 1002.49 1001.10 999.69 998.82 998.75 998.93 999.90 1000.35 1000.14 999.87 999.57 999.32 999.80 1000.37 1001.12 1001.96 1002.46 1002.85 1003.53 1004.41 1005.62 1007.21 1008.31 1009.20 1009.91 1010.37 1010.77 1011.15 1011.49 1011.87 1012.29 1012.72 1012.97 1013.24 1013.57 1013.84 1014.09 1014.26 1014.45 1014.67 1014.84 1014.95 1015.08 1015.20 1015.32 1015.45 1015.58
1005.31 1004.00 1002.05 1000.84 999.72 998.68 998.32 998.53 999.78 1000.27 999.57 999.87 1000.19 1000.20 1000.13 1000.75 1000.44 1001.65 1002.19 1002.39 1003.08 1004.06 1005.11 1006.59 1007.56 1008.54 1009.19 1010.05 1010.82 1011.28 1011.65 1012.13 1012.51 1012.91 1013.08 1013.40 1013.68 1013.95 1014.12 1014.33 1014.52 1014.65 1014.79 1014.90 1015.03 1015.12 1015.21 1015.34 1015.43
1005.30 1003.73 1001.59 1000.45 999.85 999.22 998.85 999.01 1000.03 1000.43 1000.09 999.96 1000.14 1000.34 1000.52 1000.81 1000.88 1001.40 1001.97 1002.14 1002.60 1003.58 1004.51 1005.79 1007.09 1007.99 1008.36 1008.99 1010.43 1011.21 1011.56 1012.02 1012.48 1012.86 1013.10 1013.35 1012.97 1013.38 1013.65 1013.67 1014.03 1014.47 1014.65 1014.75 1014.88 1014.99 1015.10 1015.18 1015.12
1004.54 1003.19 1001.44 1000.70 999.92 999.44 999.27 999.87 1000.28 1000.47 1000.29 1000.60 1000.40 1000.63 1001.20 1001.30 1001.50 1001.42 1001.79 1002.01 1002.35 1003.21 1004.03 1004.99 1006.56 1007.47 1007.81 1008.05 1009.83 1010.46 1010.90 1011.28 1011.75 1012.12 1012.64 1012.61 1012.25 1012.29 1012.44 1012.92 1013.87 1014.25 1014.46 1014.59 1014.69 1014.78 1014.88 1014.96 1014.02
1004.12 1002.66 1001.57 1001.20 1000.83 1000.82 1000.71 1000.60 1000.76 1000.70 1000.10 1000.03 999.97 1000.10 1000.45 1001.02 1001.18 1001.05 1001.24 1001.47 1001.91 1002.81 1003.47 1004.13 1006.01 1007.03 1007.34 1007.44 1009.10 1009.65 1010.10 1010.56 1011.15 1011.43 1011.82 1012.04 1011.78 1011.89 1012.31 1012.32 1013.10 1013.44 1013.94 1013.57 1013.76 1013.99 1014.13 1013.46 1013.00
1003.31 1002.74 1002.53 1001.55 1001.61 1002.18 1002.14 1001.99 1001.37 1000.99 1001.01 1000.73 1000.62 1000.50 1000.86 1001.33 1000.71 1000.63 1000.69 1000.85 1000.64 1001.31 1002.34 1003.49 1005.04 1006.51 1007.11 1007.11 1008.16 1008.64 1009.02 1009.63 1010.10 1010.60 1011.16 1011.40 1011.46 1011.62 1011.70 1011.66 1011.56 1012.21 1012.07 1012.37 1012.38 1012.07 1012.13 1012.44 1012.58
1002.78 1002.59 1002.33 1002.37 1002.07 1002.12 1002.32 1001.98 1001.61 1001.28 1001.32 1001.48 1001.10 1000.72 1001.21 1001.68 1001.28 1001.22 1001.31 1002.17 1001.21 999.75 999.72 1000.93 1003.00 1004.80 1006.36 1006.95 1007.67 1007.97 1008.24 1008.96 1009.13 1009.58 1010.41 1010.76 1010.93 1011.07 1011.32 1011.39 1011.25 1011.08 1011.25 1011.33 1011.83 1011.79 1011.84 1012.02 1012.21
1002.43 1002.54 1002.39 1001.90 1002.05 1002.04 1001.97 1001.64 1001.60 1001.48 1001.64 1001.68 1001.76 1001.34 1001.40 1001.58 1001.47 1001.52 1001.30 1001.49 1003.44 1000.58 1002.88 1002.64 1003.55 1005.93 1006.18 1006.12 1007.06 1007.92 1008.10 1008.03 1008.61 1008.71 1009.32 1010.42 1010.46 1010.67 1010.86 1011.27 1011.36 1011.30 1011.06 1010.96 1010.99 1011.23 1011.47 1011.55 1011.53
1002.50 1002.58 1002.08 1001.63 1001.48 1001.42 1001.77 1001.11 1000.58 1001.02 1001.10 1001.00 1001.60 1001.92 1002.01 1001.93 1001.73 1001.60 1001.76 1001.15 1002.31 1002.95 1004.68 1001.61 1001.48 1005.24 1007.06 1006.45 1006.95 1007.72 1007.88 1007.93 1008.34 1008.44 1009.20 1009.80 1010.42 1010.54 1010.86 1010.82 1010.84 1010.76 1010.83 1011.17 1011.46 1011.76 1011.69 1011.77 1011.55
1002.74 1002.29 1000.93 1000.00 1000.49 1000.96 1001.54 1000.08 999.87 999.90 1000.23 1000.41 1000.77 1001.34 1001.34 1001.49 1001.40 1001.29 1001.79 1002.24 1001.91 1001.20 1001.91 1001.71 1003.14 1004.97 1006.94 1006.34 1006.94 1007.86 1008.14 1008.62 1007.89 1007.96 1008.58 1009.55 1010.03 1010.24 1010.77 1010.97 1010.74 1010.56 1010.86 1011.38 1011.48 1011.79 1011.31 1010.90 1010.54
1001.68 1000.45 999.79 998.72 999.19 999.81 1000.39 999.88 999.37 999.14 999.22 999.64 1000.15 1000.76 1000.87 1000.82 1000.86 1001.31 1001.79 1002.76 1003.39 1002.78 1002.45 1003.79 1004.59 1003.55 1006.17 1006.18 1007.95 1008.80 1010.28 1009.98 1006.05 1007.48 1008.45 1009.26 1009.50 1010.09 1010.19 1010.09 1010.97 1011.09 1011.66 1011.76 1012.04 1011.78 1011.70 1011.53 1011.32
999.78 999.82 998.68 998.05 998.35 999.42 999.33 999.27 999.16 998.80 998.58 999.11 999.42 999.84 1000.07 999.99 1000.46 1001.55 1001.60 1002.23 1003.29 1003.98 1003.21 1003.57 1004.60 1005.03 1005.50 1006.49 1007.54 1008.59 1009.28 1009.06 1008.04 1008.09 1008.30 1008.59 1009.68 1010.12 1010.19 1010.75 1011.20 1011.34 1011.75 1011.55 1011.30 1011.60 1011.74 1011.42 1010.90
998.64 997.97 997.95 998.02 998.25 998.73 998.79 998.59 998.03 997.81 997.74 998.10 998.64 999.07 999.39 999.33 999.91 1000.81 1001.35 1002.01 1002.87 1003.25 1003.95 1004.70 1005.71 1006.48 1007.04 1006.95 1006.97 1007.57 1008.27 1008.67 1008.71 1008.63 1008.93 1009.71 1010.12 1010.40 1010.61 1011.15 1011.03 1011.20 1011.14 1010.95 1011.32 1011.56 1011.39 1011.16 1010.95
999.00 998.39 998.01 998.25 998.37 998.71 998.48 997.95 997.52 997.18 997.23 997.52 997.92 998.27 998.55 998.80 999.27 999.87 1000.91 1001.98 1002.81 1003.46 1003.77 1004.55 1005.69 1006.48 1007.36 1007.11 1007.26 1006.62 1007.51 1007.29 1008.03 1008.70 1009.10 1009.25 1009.52 1009.98 1011.06 1010.72 1010.40 1010.90 1011.11 1011.32 1011.48 1011.87 1011.72 1011.46 1011.17
999.18 998.82 998.63 998.45 998.26 998.64 998.46 997.62 997.00 996.58 996.81 997.21 997.66 997.88 997.81 998.16 998.79 999.31 1000.03 1001.87 1002.81 1003.56 1004.24 1004.85 1005.66 1006.63 1007.23 1007.84 1007.90 1007.66 1007.90 1008.07 1008.61 1008.88 1009.21 1009.58 1009.48 1009.87 1010.24 1010.74 1011.34 1011.51 1011.43 1011.29 1011.37 1011.39 1011.60 1011.46 1011.17
998.68 999.11 998.93 998.81 998.69 997.79 997.13 996.09 994.95 995.73 996.14 996.72 997.18 997.38 997.22 997.53 998.12 998.45 999.35 1001.02 1002.21 1003.32 1004.40 1004.64 1005.97 1006.82 1007.53 1007.60 1007.69 1008.04 1008.11 1007.86 1008.64 1009.01 1009.14 1009.44 1010.05 1010.28 1010.51 1010.94 1011.21 1011.31 1011.48 1011.51 1011.35 1011.34 1011.39 1011.44 1010.82
998.49 998.66 998.91 999.07 998.99 998.60 997.29 996.62 994.74 995.06 995.49 995.75 996.50 996.82 997.05 997.34 997.85 998.38 999.57 1000.99 1002.40 1003.17 1003.75 1004.40 1006.19 1007.38 1007.59 1007.90 1008.23 1008.43 1008.15 1008.45 1008.82 1008.95 1009.72 1009.90 1010.39 1010.52 1010.66 1010.88 1011.03 1011.47 1011.51 1011.33 1011.10 1011.20 1011.01 1010.92 1010.55
998.85 999.02 999.09 999.15 998.92 997.97 997.06 995.89 994.22 994.51 994.92 994.79 995.47 996.32 996.69 997.10 997.47 998.07 999.81 1001.12 1002.47 1003.70 1004.57 1005.79 1006.63 1007.31 1007.98 1008.21 1008.57 1008.74 1008.71 1009.18 1009.19 1009.45 1009.61 1009.77 1009.83 1010.25 1010.59 1010.77 1011.16 1011.05 1011.79 1011.54 1011.22 1010.86 1010.92 1010.58 1010.24
998.50 998.56 998.38 998.33 997.97 996.99 996.30 995.58 994.33 995.52 995.66 995.13 995.74 996.05 997.10 998.13 998.66 999.49 1001.19 1002.26 1003.22 1004.16 1005.71 1006.62 1007.22 1007.76 1008.15 1008.89 1009.31 1009.66 1009.99 1010.00 1010.29 1010.54 1010.24 1010.62 1010.44 1010.33 1010.37 1011.00 1011.32 1011.40 1011.38 1011.34 1011.16 1010.87 1010.56 1010.23 1009.68
997.34 997.79 996.99 996.54 996.65 996.27 995.95 995.34 994.66 994.75 995.83 996.15 996.39 997.09 997.83 998.80 999.48 1000.34 1001.58 1002.65 1003.52 1004.96 1006.03 1006.91 1007.59 1008.04 1008.46 1009.19 1010.01 1010.36 1010.25 1010.07 1010.61 1010.45 1011.02 1011.03 1010.75 1010.78 1010.87 1011.26 1011.43 1011.45 1011.24 1011.32 1011.22 1010.74 1010.27 1009.97 1009.37
996.37 996.77 997.23 996.86 996.96 997.47 997.31 995.60 995.51 995.89 996.46 996.62 997.11 997.99 998.58 999.09 999.91 1000.85 1002.29 1003.37 1004.32 1005.35 1006.65 1007.26 1007.76 1008.38 1008.61 1008.91 1009.69 1010.27 1010.69 1010.92 1010.98 1011.29 1011.52 1011.11 1010.99 1010.99 1011.02 1011.28 1011.09 1011.04 1011.21 1010.98 1010.74 1010.28 1009.97 1009.70 1009.15
995.83 995.99 996.93 997.07 997.38 997.63 997.28 997.21 995.72 995.36 995.78 996.49 997.16 998.19 999.10 999.77 1000.60 1001.79 1002.81 1003.99 1005.33 1006.36 1007.40 1008.08 1008.32 1008.55 1008.94 1009.32 1009.86 1010.26 1010.60 1010.70 1010.89 1011.11 1011.13 1011.11 1011.19 1011.03 1011.05 1010.94 1010.82 1010.77 1010.67 1010.53 1010.19 1009.71 1009.43 1009.02 1008.55
995.74 995.70 996.59 997.06 997.61 997.83 997.76 997.16 997.03 996.63 995.95 996.31 997.27 998.49 999.69 1000.52 1001.74 1003.01 1004.01 1005.19 1006.10 1006.87 1007.67 1008.09 1008.35 1008.66 1009.05 1009.52 1009.92 1010.10 1010.13 1010.54 1010.66 1010.93 1010.98 1010.98 1011.00 1010.98 1010.74 1010.57 1010.47 1010.35 1009.97 1009.79 1009.50 1009.56 1009.14 1008.51 1008.17
994.94 995.71 996.35 996.88 998.47 998.41 998.29 998.58 998.32 998.03 996.83 996.88 997.18 998.66 1000.39 1001.15 1002.18 1003.35 1004.53 1005.51 1006.25 1006.77 1007.34 1008.09 1008.62 1008.84 1009.05 1009.35 1009.70 1009.93 1010.28 1010.43 1010.58 1010.74 1010.68 1010.67 1010.62 1010.63 1010.36 1010.27 1009.92 1009.60 1009.17 1009.30 1009.12 1008.49 1008.36 1008.06 1007.63
Wind_Speed
14 15 12 9 9 10 18 19 16 2 7 3 7 10 12 13 13 5 3 5 17 19 19 16 14 16 15 14 14 15 15 15 15 14 13 11 11 10 10 9 10 10 10 10 9 8 8 8 8
13 14 9 9 12 15 15 19 9 9 4 6 10 10 10 3 12 10 11 4 17 18 17 16 14 16 15 16 14 15 15 15 15 14 13 11 11 11 11 10 9 10 9 8 7 7 7 7 6
14 12 10 11 16 18 17 15 7 3 3 9 5 2 7 5 13 5 11 12 17 16 16 16 15 16 16 16 16 15 16 15 14 14 13 12 11 11 11 10 9 8 8 7 6 6 6 6 5
9 9 10 15 23 23 25 18 1 2 10 6 4 8 4 10 3 4 11 15 17 16 17 19 15 16 16 17 17 18 17 16 15 14 13 12 11 10 10 9 9 8 7 7 6 5 5 4 3
11 11 12 18 25 25 17 17 1 7 13 9 3 10 5 9 6 10 13 14 16 16 16 17 15 15 15 16 16 17 16 16 16 15 14 13 11 11 10 10 9 8 7 6 5 4 3 2 2
11 13 17 19 24 24 23 11 14 16 13 9 10 13 4 14 10 12 15 15 15 16 17 18 14 14 14 14 14 15 15 14 14 14 14 13 11 10 9 8 8 7 7 6 6 5 3 3 3
18 15 20 23 21 22 21 23 13 15 17 15 11 7 9 10 13 13 13 15 15 16 16 17 17 14 13 11 11 12 12 13 12 11 11 11 11 10 9 8 8 7 6 5 5 5 5 5 5
15 17 25 21 20 22 15 15 11 20 19 12 4 8 5 12 14 12 11 14 16 16 16 17 16 16 15 14 12 11 11 10 10 10 10 10 9 8 8 7 7 7 6 6 6 6 6 6 7
18 17 19 24 22 18 18 10 10 17 22 7 10 13 6 4 3 10 11 13 14 14 16 16 16 15 15 16 13 12 13 12 10 10 10 10 10 11 13 11 12 10 8 7 7 7 7 8 10
16 16 24 18 17 16 11 13 12 14 12 15 18 9 7 8 9 12 12 12 14 15 16 17 16 15 14 13 15 13 12 11 10 11 11 9 10 10 10 11 13 10 9 8 9 9 9 9 10
20 21 17 19 10 11 13 14 10 16 17 15 15 13 8 9 12 14 14 15 16 15 14 15 15 13 14 11 11 8 8 8 9 12 11 10 7 7 8 7 8 8 12 8 12 10 9 11 10
21 19 21 20 5 13 17 16 18 16 17 17 15 14 1 7 14 17 15 17 20 20 17 15 19 13 11 8 9 11 10 10 9 11 12 8 6 7 7 6 8 8 7 10 8 7 7 7 8
22 21 15 19 17 15 15 18 18 18 16 16 19 11 11 10 10 13 4 17 11 22 22 21 20 16 13 9 9 9 10 10 10 11 12 9 8 7 7 7 6 6 8 8 7 7 6 7 9
17 17 21 17 17 18 20 19 20 20 17 16 18 19 14 12 13 10 11 13 19 9 8 14 16 12 13 11 9 8 7 10 8 9 10 12 8 6 6 7 7 8 7 7 6 6 6 8 9
17 13 16 18 18 18 15 21 23 19 19 21 20 21 20 20 19 10 12 7 8 8 9 25 16 15 12 11 9 9 9 9 9 7 7 10 10 7 7 7 7 7 7 6 6 7 8 9 10
16 19 19 21 22 19 16 17 17 17 20 22 23 19 21 22 21 14 7 6 2 8 7 6 7 15 11 11 10 6 3 4 7 9 8 9 8 9 8 7 8 2 4 4 4 4 8 5 9
16 18 22 21 10 12 17 15 14 14 14 16 21 19 22 22 17 15 15 10 6 5 9 6 6 6 12 7 5 4 7 4 11 2 4 8 10 8 9 6 1 5 4 5 6 7 7 6 9
20 19 21 17 17 11 14 18 14 15 11 13 17 19 21 23 22 18 17 16 10 11 12 7 3 4 7 8 8 7 5 6 6 3 5 2 2 7 5 4 5 4 5 7 6 5 7 9 9
20 19 19 15 12 7 11 13 16 14 13 12 14 18 19 22 23 19 17 10 11 12 14 12 9 7 7 6 7 7 8 7 3 3 4 3 4 2 7 6 7 8 7 5 6 8 8 9 9
20 13 10 8 10 8 12 14 14 12 8 11 14 14 19 22 22 19 12 10 14 7 10 10 7 8 5 5 6 5 5 6 6 3 5 8 5 6 9 7 4 4 5 5 4 5 7 9 8
18 17 16 14 15 13 13 17 18 15 10 10 9 14 16 19 21 22 22 15 12 8 11 8 6 1 5 7 1 3 2 4 3 5 5 4 4 4 3 1 4 5 4 6 6 5 7 7 7
18 18 15 11 11 12 12 13 10 12 11 11 13 13 15 16 15 14 16 18 16 15 10 3 5 5 8 8 6 6 5 4 4 5 5 5 3 2 3 4 5 4 5 6 6 5 6 8 10
15 12 15 16 16 15 17 10 10 10 11 14 14 15 13 12 14 14 17 16 13 10 10 12 14 8 6 4 7 7 7 6 6 5 6 1 3 2 4 4 5 4 6 8 8 9 9 10 11
14 13 11 12 13 16 19 16 12 6 7 10 15 15 14 8 9 17 10 10 13 11 10 11 14 11 10 8 5 4 8 6 2 3 2 5 6 6 6 6 5 5 8 10 10 10 13 12 13
15 12 11 13 14 14 18 17 4 13 3 4 4 12 9 5 6 13 12 10 11 16 15 13 13 12 11 9 8 8 7 5 2 1 3 4 4 5 5 6 6 8 8 9 11 12 13 13 14
23 18 12 17 14 15 19 10 2 14 9 6 8 6 9 11 12 14 16 13 16 15 15 15 14 13 12 11 8 4 4 2 2 2 5 5 6 7 7 7 9 11 11 11 12 11 12 14 13
19 21 18 19 12 9 9 9 14 13 10 10 11 10 11 12 12 16 17 15 14 14 12 11 11 10 9 9 5 3 1 1 4 4 5 6 6 7 9 11 12 13 14 13 13 12 14 13 13
22 19 18 13 12 16 13 13 12 19 16 12 13 10 11 13 15 14 14 13 12 11 10 8 8 8 7 5 3 1 3 4 4 6 8 9 10 11 12 13 13 13 14 14 13 12 13 13 11
19 16 14 12 13 10 11 8 14 10 5 12 12 13 13 14 14 12 13 12 12 11 10 8 7 6 5 2 1 3 5 7 7 8 9 10 11 12 13 14 15 15 15 14 12 12 14 16 15
20 20 18 10 10 11 11 2 10 7 7 10 14 17 13 14 15 14 13 12 11 9 8 7 4 1 2 3 5 6 7 8 9 10 11 11 12 13 13 15 16 16 15 13 14 14 16 17 16
Wind_Direction
266 241 246 262 247 232 254 249 252 321 202 100 333 278 325 318 322 61 33 91 125 125 145 151 132 131 132 136 143 143 140 143 145 141 143 148 143 140 135 128 125 124 124 119 119 122 126 124 120
255 240 244 268 241 246 241 237 232 239 343 6 273 257 259 261 46 96 136 159 135 130 147 151 139 132 135 135 140 142 141 145 144 143 148 149 149 146 142 137 131 129 125 121 121 124 129 127 126
248 241 249 225 238 249 255 250 224 193 20 261 281 325 314 1 77 38 83 153 131 140 157 134 140 135 140 138 139 141 142 144 144 147 149 154 153 146 144 138 132 130 129 126 133 134 133 126 132
214 214 246 250 240 232 254 269 226 327 226 232 278 266 181 56 7 58 134 151 133 147 159 134 141 140 141 145 146 144 143 144 147 150 152 154 149 146 143 140 138 143 141 140 146 147 138 142 148
236 236 230 227 239 254 260 263 330 244 282 271 296 278 204 106 93 123 148 151 154 154 142 153 145 141 143 148 149 144 146 150 153 155 154 154 152 149 152 149 149 148 148 153 156 156 153 161 188
217 231 240 233 241 232 245 226 259 260 265 279 263 246 247 112 128 143 155 161 160 154 140 151 144 141 143 147 147 145 148 151 155 154 154 152 152 154 156 150 153 156 161 168 171 177 189 208 231
232 218 238 248 255 238 227 229 217 240 249 248 274 290 95 164 123 160 161 162 160 155 147 154 166 152 136 138 140 144 146 149 150 149 148 149 154 157 158 156 163 168 172 176 183 194 210 226 244
234 253 247 242 253 254 252 227 205 248 254 242 270 246 295 57 148 164 176 168 167 159 157 160 165 169 172 161 143 140 138 136 136 144 145 149 151 158 165 163 182 182 184 190 200 210 221 233 244
225 246 241 243 246 248 255 239 227 258 251 259 253 231 2 43 148 173 185 179 171 164 161 162 165 172 181 164 155 142 142 139 142 157 158 159 195 182 174 202 163 181 193 203 213 221 228 237 241
226 229 243 246 258 263 251 251 255 247 235 235 246 199 239 228 203 193 192 189 181 174 168 164 162 175 186 163 152 178 172 177 185 187 175 207 211 185 210 175 165 185 202 218 223 222 228 237 256
219 243 242 246 267 284 285 266 253 248 249 232 224 232 179 215 217 208 198 193 183 179 173 172 156 177 189 176 155 181 176 183 189 192 177 212 194 189 206 172 187 208 202 226 204 208 225 237 249
232 241 245 266 241 238 257 266 263 251 253 266 252 255 23 243 243 212 210 192 187 175 176 181 154 176 205 178 169 182 183 187 190 193 188 200 214 196 225 216 213 190 200 214 229 234 228 252 268
231 239 236 245 256 248 251 250 256 250 250 253 269 231 214 257 267 274 16 302 241 167 175 177 158 170 181 209 181 195 195 184 196 177 184 214 207 206 207 249 250 235 213 214 223 253 259 253 243
238 236 254 246 242 244 249 254 251 243 248 245 254 264 247 252 253 246 264 237 247 348 191 161 160 166 174 193 189 203 201 174 204 195 179 198 221 214 228 215 237 241 248 260 264 253 259 253 257
242 250 245 243 241 243 251 255 254 259 254 232 232 242 247 241 246 199 224 283 256 223 130 250 139 159 186 191 204 199 198 228 189 211 180 192 198 230 238 244 239 238 231 242 265 273 256 250 252
228 232 247 229 215 226 227 256 253 234 235 238 233 235 239 230 231 222 150 134 48 336 74 77 150 153 184 188 188 217 277 246 203 194 180 199 220 221 194 233 252 309 337 344 328 284 270 273 274
216 234 221 242 176 218 196 248 244 244 238 235 236 224 242 225 216 236 164 133 166 98 55 99 113 181 167 150 196 155 252 188 286 122 145 168 188 216 229 227 266 279 274 270 268 265 263 280 284
214 216 252 214 170 188 234 233 254 267 235 237 238 229 235 226 215 213 211 151 147 123 103 78 145 244 166 179 190 173 194 232 242 184 221 87 178 237 217 237 238 259 246 246 267 275 277 276 285
241 227 224 203 223 207 247 260 258 258 250 236 230 228 233 228 214 196 212 129 170 138 117 124 131 142 208 209 189 178 184 205 230 268 203 174 197 242 260 239 222 213 246 294 333 313 297 286 278
249 247 229 243 236 233 271 260 260 256 250 245 244 230 231 219 212 198 199 213 205 138 137 130 111 135 202 253 251 143 201 175 170 165 205 194 198 196 219 250 332 5 321 332 272 266 287 288 289
228 227 226 241 210 212 267 259 246 238 225 215 244 227 217 202 208 218 193 183 160 158 138 123 92 267 181 255 222 154 132 108 111 137 148 155 143 175 191 254 262 307 283 277 279 245 259 278 276
218 218 248 250 255 252 274 253 192 210 186 208 210 221 225 191 209 210 193 187 208 180 214 196 112 177 188 205 196 201 215 181 171 157 174 146 140 200 217 231 260 264 273 289 297 250 234 260 271
230 211 222 224 231 256 254 235 288 165 197 197 211 211 219 222 219 191 176 163 171 162 176 140 157 139 96 173 215 202 211 154 166 165 122 220 172 210 245 268 280 282 278 270 276 282 279 273 276
218 231 239 245 243 237 243 253 234 169 230 190 190 205 213 206 207 181 159 155 157 145 144 143 137 138 137 115 76 84 70 35 114 43 191 209 220 181 191 232 249 276 280 276 273 272 266 262 266
206 214 212 210 218 236 231 226 219 155 235 108 237 177 173 164 157 116 137 168 162 140 144 141 135 126 121 109 94 77 76 85 149 322 278 339 297 294 316 337 300 281 281 292 291 284 277 273 268
210 209 234 208 209 223 223 227 254 139 106 98 109 142 148 172 150 140 140 139 142 141 151 143 142 134 128 121 107 101 73 99 277 37 340 299 309 301 316 295 281 282 284 281 279 279 276 278 277
189 214 232 266 296 265 331 230 125 157 174 154 140 149 158 142 145 134 133 142 137 135 140 140 123 123 116 103 105 106 74 17 339 292 288 279 295 293 298 305 299 291 283 282 281 274 272 274 277
243 203 207 234 236 254 175 223 276 169 169 172 154 163 142 136 129 131 128 121 117 125 117 111 110 101 102 100 119 85 322 301 310 298 294 299 294 293 293 293 289 286 283 279 278 278 275 272 275
201 219 234 231 232 231 262 210 94 8 176 157 163 147 152 136 134 143 138 133 143 142 136 133 127 125 120 131 15 322 332 314 311 299 294 291 292 290 289 288 284 281 281 281 279 275 277 275 275
200 208 224 200 217 280 270 117 297 148 291 172 152 139 149 159 148 141 139 151 148 141 130 123 101 16 22 337 326 317 306 305 299 293 294 293 289 286 285 282 281 282 285 277 271 273 280 279 279